星链-3940 (STARLINK-3940 )

导读 | 豆包AI

STARLINK-3940是美国(US)SpaceX星链(Starlink)项目的卫星,于2022年5月13日发射入轨,属于星链互联网星座的组成部分,旨在为全球提供低延迟、高速率的宽带互联网服务,目前已在轨道运行,承担卫星互联网通信相关任务,支撑星链星座的全球覆盖与服务能力。

基本信息
目录编号:
52540
目录名称:
STARLINK-3940
国际标识:
2022-051H
轨道中心:
EARTH
卫星名称:
星链-3940
卫星全名:
星链-3940 (STARLINK-3940 )
卫星状态:
在轨 (已飞行1401 天)
发射日期:
2022-05-13 UTC
国别 :
美国 (US)
星等 :
--
轨道信息
数据来源 国际轨道数据
星历时间: 2026-03-14T18:58:30+0800
12小时前
查看轨道信息
半长轴: 6917.877km
偏心率: 0.0001255
轨道倾角: 53.216°
近地点辐角 85.381°
升交点赤经 107.758°
平近点角 274.733°
近地点: 538.871km
远地点: 540.609km
周期: 95.437分钟
每日圈数: 15.088413
详细信息
固有亮度:
5
最大亮度:
2.5
卫星平台:
Starlink v1.5
覆盖范围:
全球
运营商:
太空探索技术公司
运营商所在国:
美国
制造商(研发单位):
太空探索技术公司
制造商所在国:
美国
使用方式:
暂无
卫星简介
星链(Starlink)计划是由太空探索技术公司(SpaceX)提出的一个巨型低轨卫星互联网星座项目,计划在2019年至2024年间在太空搭建由约1.2万颗卫星组成的“星链”网络,其中1584颗将部署在地球上空550千米处的近地轨道,并从2020年开始工作。该卫星仍在工作。
2D轨道图
3D轨道图
轨道高度分析图
轨道倾角分析图
轨道综合分析图
查看轨道综合分析图